Theta_e
315 310 308 305 297 291 287 290 293 295 295 298 300 299 298 300 296 292 320 331 333 337 343 345 348 349 346 344 343 342 342 343 343 344 344 345 342 341 340 337 338 340 339 339 339 339 337 336 336
312 310 306 298 291 286 287 289 293 296 299 303 301 300 302 301 313 319 324 332 335 340 342 344 346 348 345 343 343 342 341 342 342 343 343 344 343 341 339 338 337 338 339 337 340 338 337 335 335
311 307 303 294 287 286 287 290 294 295 298 295 298 303 304 305 312 322 326 334 337 338 341 344 345 348 346 344 342 342 343 341 341 342 342 343 344 341 339 337 336 337 336 336 337 338 336 335 334
305 301 297 291 287 290 291 291 295 295 298 298 301 299 306 314 318 326 333 334 336 338 341 342 346 348 346 345 343 341 341 340 340 341 341 342 344 342 339 337 335 336 335 335 337 336 336 335 334
301 297 291 289 289 291 292 294 295 294 296 299 300 297 302 316 324 330 331 333 335 338 340 342 345 346 346 345 342 342 341 340 340 341 341 343 344 341 338 337 334 334 335 335 338 337 336 335 335
297 295 288 286 287 291 295 294 294 292 295 296 299 301 305 314 325 327 331 330 336 337 339 340 338 341 344 344 343 342 342 341 340 340 340 343 343 341 338 336 334 333 334 334 336 336 335 334 334
295 292 288 286 287 290 294 296 293 293 293 295 301 298 302 310 323 328 329 331 335 337 339 338 340 339 337 339 340 340 340 340 340 340 342 342 341 340 338 336 333 332 333 333 335 333 333 332 332
296 293 287 288 288 288 293 295 294 295 295 296 303 296 296 313 326 328 329 331 333 335 338 339 340 339 337 336 333 335 336 337 337 337 336 334 335 335 333 331 333 331 332 332 333 332 331 330 329
296 290 288 289 289 291 292 293 293 295 296 298 297 298 304 319 326 325 325 329 332 335 337 337 337 340 336 335 331 330 331 331 331 330 328 326 326 326 325 327 330 332 331 331 331 331 329 327 326
293 288 290 291 290 292 294 293 295 296 294 297 299 304 310 320 324 324 324 327 329 330 333 335 336 337 339 337 332 330 329 328 327 326 325 323 322 322 324 323 326 329 329 331 331 329 323 317 312
291 290 291 291 292 294 295 292 293 293 293 296 297 300 310 315 320 323 324 327 329 331 332 334 335 336 337 337 334 329 327 324 323 323 322 321 320 320 319 319 319 318 317 317 318 313 311 311 310
292 291 292 294 294 292 293 294 292 293 296 295 297 301 310 314 319 322 324 325 329 330 332 334 335 335 336 336 335 334 330 323 320 320 320 319 317 316 315 315 314 314 312 309 308 308 309 309 309
288 291 292 293 292 291 293 290 291 292 295 294 296 304 309 314 319 321 323 323 324 329 332 333 334 334 335 334 335 334 332 328 320 319 319 318 316 315 313 313 312 311 310 307 307 307 307 307 307
292 292 291 292 292 292 290 290 291 290 292 292 294 299 306 310 315 313 316 319 320 327 331 333 333 334 334 334 333 333 333 331 324 318 318 317 317 315 313 311 311 309 309 307 306 305 306 305 305
293 289 289 290 292 291 293 288 291 291 291 291 292 292 296 306 308 313 317 319 321 324 328 331 333 334 333 333 333 333 333 332 328 321 317 317 316 315 312 311 311 309 308 306 304 303 303 302 303
289 286 283 286 291 291 289 284 288 292 291 292 292 291 292 294 300 308 311 314 316 318 322 329 332 333 333 333 332 332 332 332 331 326 319 317 316 315 312 314 314 313 311 308 305 303 302 303 303
286 280 282 286 291 290 289 286 289 291 291 293 290 292 293 293 294 295 302 311 313 316 318 324 329 331 332 333 333 332 332 331 331 329 321 320 316 315 314 314 313 312 310 305 305 303 302 300 299
282 283 282 282 287 289 288 288 291 292 290 291 291 291 291 292 295 295 296 298 308 311 316 320 326 330 331 332 332 332 331 331 331 330 325 322 318 315 314 312 312 312 309 306 304 302 298 299 297
285 283 282 284 288 288 287 287 290 292 290 290 290 291 291 292 295 294 294 295 297 305 310 316 321 326 328 329 329 329 327 329 329 330 328 323 322 316 314 313 311 311 309 306 304 297 295 294 293
285 283 283 284 288 288 285 287 289 290 291 291 291 291 290 290 292 294 294 292 293 296 305 310 317 322 326 329 329 330 330 330 330 330 329 326 324 320 317 315 313 312 309 306 303 299 295 293 294
282 282 282 282 284 284 282 283 284 286 288 289 290 290 290 292 293 292 292 292 292 292 293 303 312 318 324 327 327 319 325 323 327 328 328 327 325 323 320 317 316 313 311 307 304 301 300 294 292
281 287 286 285 283 279 282 276 281 284 287 288 289 288 289 289 289 291 294 294 293 293 292 294 303 311 319 323 324 325 326 325 327 328 329 327 326 324 321 320 318 315 313 310 306 304 303 301 294
285 287 286 283 281 280 279 278 281 282 285 287 287 290 290 292 293 294 294 295 296 296 295 296 299 307 314 319 323 324 323 324 317 325 324 322 324 325 323 321 319 317 314 313 309 305 304 302 302
289 285 284 281 279 276 279 279 279 281 283 287 286 290 291 292 292 292 292 294 294 296 296 301 305 307 312 315 316 320 321 313 311 311 322 321 320 320 321 321 320 319 316 313 310 307 305 304 305
284 283 277 275 274 275 277 277 280 284 285 285 289 292 292 291 292 293 293 294 294 294 295 297 302 305 308 312 313 314 314 312 312 310 316 312 313 311 314 314 317 317 317 315 313 308 305 303 303
284 283 278 271 272 275 280 277 282 286 289 290 291 291 292 292 292 293 293 293 293 294 295 296 297 298 303 307 308 309 310 310 309 308 307 307 311 314 314 312 313 315 315 314 312 308 306 304 302
284 281 283 278 267 273 277 281 286 287 289 290 290 290 291 291 292 292 293 293 293 294 295 295 296 296 297 298 301 303 303 304 304 304 303 303 302 303 304 307 309 309 309 309 309 308 305 303 302
285 287 280 278 269 268 275 277 280 284 287 289 289 290 291 291 291 291 292 292 293 294 295 296 296 296 296 297 298 299 299 300 300 300 300 299 299 299 298 298 299 301 305 305 306 306 304 303 302
283 282 282 282 278 273 270 276 282 284 288 289 289 290 291 291 290 290 291 291 292 292 293 294 295 296 296 297 297 297 297 298 298 298 298 297 297 297 296 296 296 297 300 302 303 303 304 302 303
284 284 284 279 276 277 277 280 287 289 290 290 291 292 291 290 291 291 292 292 292 292 292 293 293 293 294 295 295 296 296 296 296 296 296 295 295 295 295 294 294 295 299 301 301 301 302 301 300
Wind_Speed
4 4 4 6 5 6 2 4 1 3 2 1 3 5 7 3 4 5 3 5 10 13 9 10 13 14 13 13 12 12 11 12 12 12 14 14 16 16 17 16 13 15 16 15 16 17 18 17 17
2 3 6 3 6 3 5 2 4 4 4 6 4 2 2 2 2 3 6 5 11 11 9 8 13 14 14 13 13 12 12 12 12 12 13 12 15 16 15 16 14 14 16 15 15 16 17 17 17
2 5 4 5 4 5 5 5 6 2 5 2 3 3 4 4 1 8 2 9 10 10 8 8 13 14 14 13 13 12 12 12 12 12 12 11 15 16 15 15 14 13 14 13 13 16 16 16 16
3 5 5 5 4 3 3 5 5 6 1 1 3 3 2 1 4 6 9 10 10 9 7 9 13 14 13 12 12 12 12 12 12 12 12 11 13 15 15 14 14 13 14 12 15 15 15 15 15
5 4 4 3 2 1 2 3 7 4 3 2 3 3 1 1 3 7 10 10 11 8 7 8 11 13 12 12 12 11 11 11 11 11 11 9 14 16 15 14 13 12 14 12 13 15 16 15 14
5 4 5 2 3 2 1 4 4 3 2 3 4 5 2 2 5 6 7 8 8 9 8 7 9 11 11 11 12 10 10 10 10 10 10 10 15 15 15 13 13 12 13 11 13 14 15 15 14
7 5 5 5 4 2 4 6 4 5 5 4 7 5 2 2 5 6 7 7 7 7 8 6 6 8 10 9 10 10 10 10 9 10 9 12 12 13 13 11 12 12 13 11 13 13 14 14 14
6 6 4 3 5 4 5 5 1 5 6 3 4 4 4 4 8 7 6 7 6 6 9 11 8 6 6 6 8 8 8 9 8 8 8 9 10 11 11 10 11 12 13 12 12 12 12 12 12
3 6 2 6 6 4 4 4 2 1 5 2 5 5 1 6 10 8 5 5 6 7 10 11 10 7 5 5 5 7 8 7 7 7 8 7 4 6 7 7 10 10 11 12 12 12 12 12 11
6 5 8 5 4 5 6 4 6 3 2 3 2 1 5 6 10 12 10 12 11 13 12 10 10 9 8 5 6 5 5 4 4 5 5 4 5 4 5 6 9 9 9 11 12 11 10 8 4
3 5 5 3 2 4 7 4 3 6 4 8 10 5 7 6 7 11 10 13 15 13 11 12 10 9 9 7 5 2 2 3 3 5 5 4 4 3 3 3 3 4 6 3 5 5 3 5 4
4 1 5 4 2 2 5 4 2 6 5 3 8 5 7 9 12 13 12 12 13 14 14 11 10 9 9 6 6 6 5 3 3 4 5 4 3 4 3 3 4 4 3 5 4 3 4 5 5
3 3 2 1 2 3 2 1 4 7 8 5 3 5 10 11 12 9 7 6 7 14 14 12 11 10 9 9 7 6 6 6 4 4 5 4 4 4 4 3 3 4 4 4 4 4 4 4 4
4 3 2 0 1 2 1 1 3 2 3 5 5 6 8 10 13 4 6 8 10 11 15 13 12 11 10 10 10 8 7 7 7 4 6 6 5 5 4 4 3 3 3 4 4 4 4 4 3
4 4 3 2 2 0 2 4 9 4 3 2 6 8 6 11 5 11 11 11 11 11 10 14 16 13 12 12 10 8 8 8 7 7 6 6 6 7 6 5 4 4 4 5 4 4 3 3 3
6 5 3 2 3 0 4 9 4 3 3 7 6 6 7 10 12 11 10 9 8 7 11 12 11 15 16 14 9 8 10 8 7 6 7 8 7 7 6 6 5 5 4 5 4 4 3 4 3
7 3 3 5 4 2 3 6 3 3 5 3 4 7 7 8 10 11 11 13 11 12 10 12 13 16 17 15 11 10 11 10 8 7 7 10 9 8 7 6 5 6 4 4 5 2 2 3 3
6 3 2 3 1 1 1 10 9 8 4 8 9 10 9 10 17 6 10 10 11 10 10 12 12 14 14 10 10 8 7 9 7 7 8 11 9 10 8 5 6 8 6 5 4 4 2 2 3
7 5 3 3 2 2 6 7 12 11 7 9 11 11 11 11 10 7 9 8 9 8 9 12 13 14 11 10 11 9 10 8 8 8 10 11 11 11 12 8 8 9 9 9 8 4 4 2 3
4 5 3 2 2 2 5 11 10 9 11 8 9 12 9 8 9 9 8 5 8 8 11 9 13 12 13 11 11 9 10 8 8 8 9 12 13 13 12 11 10 11 8 10 11 8 4 2 9
2 6 4 3 1 3 5 9 6 6 4 6 9 7 7 10 10 9 8 5 4 7 8 9 13 13 13 14 6 3 3 2 5 7 8 11 13 12 13 13 11 11 10 10 12 13 14 9 7
5 5 4 4 3 3 3 8 7 5 11 7 7 7 8 8 5 5 6 6 5 3 2 6 8 8 9 10 10 14 12 12 10 8 7 8 12 13 14 14 13 12 10 11 12 11 12 9 9
4 5 5 3 4 3 3 1 8 2 7 8 3 8 8 7 7 7 7 6 5 6 4 1 4 6 7 9 11 10 9 6 2 5 6 5 8 11 12 13 13 13 11 12 12 11 13 11 8
9 7 7 5 3 2 7 7 7 5 5 2 5 7 8 8 7 7 5 6 6 7 7 6 4 3 6 7 7 10 10 6 4 4 7 5 5 5 8 10 10 12 11 12 12 13 14 14 12
4 7 2 3 3 7 2 1 10 6 5 3 5 8 8 6 5 6 8 8 8 9 8 6 5 3 2 5 6 6 6 7 7 6 6 5 4 3 6 6 8 8 10 11 10 11 13 14 13
7 8 8 9 5 4 3 8 8 2 1 2 2 3 5 7 6 7 7 6 7 7 8 7 8 5 4 3 3 3 4 3 3 3 3 3 3 4 4 5 5 6 7 8 8 7 10 10 11
6 6 6 8 3 4 5 7 9 3 4 4 4 4 6 7 7 8 8 8 8 9 9 7 7 7 8 6 4 4 2 2 2 2 2 2 2 3 4 5 5 5 5 5 5 7 9 9 11
6 8 4 3 3 4 5 5 7 5 7 3 2 5 5 6 8 7 7 7 7 7 6 7 7 5 5 5 5 4 4 3 2 1 2 3 4 4 5 6 6 6 6 6 5 6 6 9 8
4 3 3 6 6 8 1 8 7 6 8 7 3 3 6 6 7 7 7 7 7 6 7 6 5 7 8 7 5 6 4 4 3 1 2 3 3 5 6 6 6 7 7 8 9 10 9 9 10
2 8 8 7 5 3 3 10 3 8 8 7 4 5 6 7 7 7 7 7 7 7 7 8 9 9 6 5 6 5 5 6 5 4 5 3 5 4 6 6 6 6 8 8 10 10 9 11 11
Wind_Direction
6 38 68 43 56 67 186 231 111 143 173 189 111 139 177 128 162 210 304 179 134 145 152 154 152 141 139 135 133 130 124 119 116 106 99 108 104 96 91 90 88 89 83 78 92 93 83 79 79
15 68 46 75 89 82 259 249 201 198 152 125 101 68 88 140 128 96 113 181 144 142 148 154 143 143 146 142 139 132 128 123 121 113 107 106 114 105 98 97 93 94 89 85 92 93 88 85 84
114 46 86 92 113 168 189 201 186 167 156 133 100 32 144 170 111 161 212 142 137 139 144 150 144 148 148 144 141 135 130 125 123 120 112 107 124 113 106 103 97 95 93 90 100 95 90 88 88
80 13 39 88 203 228 188 173 176 139 238 119 119 79 329 275 165 185 138 138 136 139 140 149 146 150 147 143 141 137 131 127 125 124 121 116 120 118 113 106 104 104 97 94 104 99 93 90 89
39 59 63 86 279 283 248 158 154 138 151 128 125 195 211 50 15 130 136 143 144 141 138 152 152 150 149 148 145 143 138 132 128 125 121 118 131 122 114 110 107 109 100 98 100 99 95 93 89
50 93 70 171 257 345 72 159 176 120 177 153 87 138 233 322 126 156 140 139 141 144 141 148 153 149 152 153 149 147 141 135 134 130 129 133 129 126 119 115 113 112 106 102 108 101 98 96 91
111 85 176 160 191 40 180 157 168 165 161 231 152 129 262 230 175 149 132 123 127 131 143 138 154 153 152 154 151 151 148 145 143 138 140 129 125 123 120 118 116 118 110 107 109 105 102 97 91
102 92 118 204 180 220 176 179 171 161 213 62 170 186 253 206 143 119 115 121 127 137 160 171 168 158 151 155 155 153 151 148 144 135 120 115 118 117 121 117 122 125 116 114 116 115 109 104 95
125 67 170 200 152 200 145 158 173 262 121 226 199 159 216 132 124 115 114 134 145 170 176 181 181 168 153 152 161 153 151 146 136 120 118 101 109 113 113 124 125 126 123 127 123 115 106 98 89
87 114 210 196 193 184 172 169 175 133 144 235 256 218 89 134 156 158 169 178 185 190 190 189 187 184 168 158 157 157 152 151 147 140 136 119 117 119 119 119 119 119 126 126 129 119 108 92 78
136 178 189 225 191 181 151 125 163 137 236 217 206 189 149 153 175 180 184 187 188 190 191 195 189 189 182 175 163 150 148 149 152 152 143 135 125 123 117 113 109 108 88 75 92 97 83 95 97
122 190 170 187 195 139 147 120 187 193 220 298 216 174 161 167 186 192 194 187 185 191 195 189 191 188 189 186 174 169 167 161 165 167 156 146 140 143 140 137 145 132 129 122 121 111 109 95 92
130 209 150 113 118 87 95 123 250 253 247 278 63 165 186 191 202 207 205 179 167 193 197 192 188 189 188 194 185 178 178 176 174 169 170 155 153 154 139 152 158 147 142 141 137 130 122 112 103
139 138 100 135 15 28 66 325 18 267 35 203 203 215 212 211 208 171 186 199 192 192 198 193 193 191 189 195 190 189 184 179 172 172 184 171 157 155 155 158 174 168 154 148 146 150 144 129 123
94 106 2 197 178 136 137 285 235 246 321 249 213 236 240 239 226 221 216 211 200 206 186 192 197 192 197 198 196 198 195 183 179 183 176 176 168 168 165 162 179 181 156 141 129 115 101 109 96
76 50 100 292 144 308 116 263 273 327 193 243 228 243 235 244 230 227 220 220 210 194 191 189 192 198 202 202 196 201 204 195 187 181 177 181 178 168 164 179 184 171 154 148 152 147 128 128 123
19 170 187 310 204 116 154 261 275 29 25 292 295 285 276 269 259 238 224 217 212 208 190 192 191 195 201 204 202 202 205 203 195 183 180 184 180 177 177 186 171 151 153 146 149 119 113 157 142
182 156 223 237 256 87 240 268 286 280 289 276 287 283 273 270 262 239 237 222 220 209 199 200 193 197 194 193 199 201 202 211 198 193 186 181 185 182 179 177 163 163 158 160 162 145 89 125 139
135 126 165 247 3 208 233 268 276 289 293 258 256 264 265 258 276 265 260 236 218 208 194 196 188 196 182 191 196 199 209 205 201 201 187 185 188 186 188 182 167 176 181 180 166 130 149 142 131
124 120 204 303 26 176 356 285 268 267 258 251 264 272 267 281 292 282 285 262 214 211 208 200 204 194 194 195 201 204 204 209 204 201 195 189 191 191 195 192 192 189 180 173 176 167 146 161 177
169 154 181 179 355 61 347 298 308 293 274 279 264 272 276 259 275 297 315 299 251 229 214 208 207 201 199 200 176 100 92 80 182 196 197 194 193 195 197 198 196 191 189 192 190 189 183 182 194
168 190 138 142 93 235 30 284 303 307 303 278 332 323 317 306 307 336 1 5 10 338 270 223 211 206 204 186 183 194 205 209 213 203 202 195 193 198 202 203 198 200 196 205 202 195 201 176 188
194 116 122 92 96 64 326 55 268 341 282 288 320 335 336 351 44 23 17 16 17 15 24 16 210 202 187 180 188 192 205 216 185 195 174 184 196 214 210 207 205 200 201 208 199 199 204 206 200
151 82 55 55 85 321 222 171 277 208 211 277 317 328 340 346 3 19 24 23 16 17 26 30 104 147 169 176 172 184 197 165 148 169 206 197 201 195 209 205 205 208 207 206 204 205 212 214 222
82 88 4 356 2 226 0 157 250 240 231 229 304 323 339 355 31 33 26 13 8 14 17 25 32 64 159 169 169 174 172 163 182 174 194 175 189 191 202 196 204 206 211 211 209 206 209 209 215
186 161 156 194 197 244 70 236 249 186 10 67 78 330 10 36 27 32 17 16 13 16 26 27 33 32 56 96 142 152 169 179 184 189 186 198 208 217 207 210 223 230 215 215 208 200 211 212 216
196 210 157 106 13 49 216 284 309 56 103 61 31 52 32 32 32 24 13 17 10 14 23 13 37 35 30 41 53 62 69 143 188 223 229 241 232 242 243 238 231 222 212 206 196 212 211 209 214
157 161 87 10 146 243 269 269 232 185 192 186 81 60 31 28 38 26 25 17 22 20 15 32 49 64 57 58 53 62 57 56 64 106 252 240 260 240 231 236 231 239 236 235 226 223 209 212 218
134 185 65 125 153 172 220 254 223 179 164 170 151 69 44 35 39 32 25 25 29 28 32 32 30 43 37 36 37 35 35 46 36 10 272 247 246 243 240 238 237 231 232 231 228 233 240 219 227
222 198 159 153 218 244 159 253 318 148 152 163 144 78 57 58 51 41 35 35 35 33 33 36 28 32 20 23 37 23 14 20 14 355 327 302 273 265 254 248 247 241 239 233 231 237 227 226 226